Погода в Андрюшине

Россия / Тюменская область     57°45′27″N   65°57′35″E
темп.,
°C
ветер,
м/с
пор.,
м/с
влажн.,
%
обл.,
%
осадки,
мм/ч
давл.,
гПа
погр.,
м
11 мая, вт
вт1123:00+12вюв114517 0.0 102610
02:00+11ю115143 0.0 102710
05:00+10зюз115496 0.0 102710
08:00+16з123867 0.0 1027256
11:00+21з222541 0.0 10271669
14:00+23з342197 0.0 10261981
17:00+22зсз3423100 0.0 10261930
20:00+17з233922 0.0 102642
12 мая, ср
ср1223:00+14зюз36446 0.0 102592
02:00+13зсз3948100 0.0 1025178
05:00+11с277962 0.0 1026155
08:00+16с365275 0.0 1027663
11:00+19ссз4533100 0.0 10261368
14:00+21сз473385 0.0 10261952
17:00+19ссз4744100 0.0 1026872
20:00+17сз225578 0.0 102516
13 мая, чт
чт1323:00+14зюз226291 0.0 102534
02:00+15з41059100 0.0 1024235
05:00+13зсз311715 0.0 1024225
08:00+19сз4952100 0.0 1024497
11:00+23сз57415 0.0 10231762
14:00+23ссз5843100 0.0 10232244
17:00+23ссз594448 0.0 10242161
20:00+19ссв24520 0.0 102586
14 мая, пт
пт1423:00+14всв24645 0.0 102680
02:00+12всв22675 0.0 102713
05:00+11юв22705 0.0 102920
08:00+17ююв224965 0.0 1029361
11:00+21ююз3339100 0.0 10271092
14:00+24юз363581 0.0 10251899
17:00+27зюз383022 0.0 10232764
20:00+23ююз344452 0.0 102155
15 мая, сб
сб1523:00+20зюз2449100 0.0 102055
02:00+18з37527 0.0 1020117
05:00+16зсз24605 0.0 102169
08:00+23зсз354496 0.0 1021312
11:00+27з463199 0.0 10202051
14:00+28з563189 0.0 10192802
17:00+28зсз592927 0.0 10162798
20:00